"Pseudo-MPEC" for P225iTD

Created 2025 Jan 12 16:31:06 UT using Find_Orb

Click here for an explanation of pseudo-MPECs

 
 Astrometry: 
     P225iTD* C2025 01 06.62574910 44 27.777+74 06 05.79   ~16Ll 21.94wXNEOCPF52
     P225iTD  C2025 01 06.63794710 44 33.247+74 06 17.42   ~16Ll 21.95wXNEOCPF52
     P225iTD  C2025 01 06.65012210 44 38.750+74 06 28.29   ~16Ll 22.04wXNEOCPF52

Station data:
(F52) Pan-STARRS 2, Haleakala  (N20.707382 W156.255910)  US/Hawaii.
   Observers J. Bulger, T. Dukes, T. Lowe, A. Schultz, M. Willman. Measurers
   K. Chambers, S. Chastel, T. de Boer, L. Denneau, J. Fairlamb, H.
   Flewelling, M. Huber, C.-C. Lin, E. Magnier, Y. Ramanjooloo, R. Wainscoat,
   R. Weryk. 1.8-m Ritchey-Chrétien + CCD.

Orbital elements:  P225iTD
   Perihelion 2024 Dec 25.69351 +/- 32.1 TT = 16:38:38 (JD 2460670.19351)
Epoch 2025 Jan  7.0 TT = JDT 2460682.5   Earth MOID: 0.1894      AutoNEOCP
M   4.28614173 +/- 16               (J2000 ecliptic)
n   0.34828291 +/- 0.288            Peri.   27.80326 +/- 100
a   2.00069676 +/- 1.1              Node    70.29641 +/- 55
e   0.4264764 +/- 0.263             Incl.   19.05433 +/- 7
P   2.82991                H 22.52  G  0.15   U 11.9  SR
q 1.14744669 +/- 0.181    Q 2.85394683 +/- 44.8
From 3 observations 2025 Jan. 6 (35.1 min); mean residual 0".10
Residuals in arcseconds: 
250106 F52  .02+  .09-    250106 F52  .05-  .18+    250106 F52  .01-  .11-    

Ephemerides (geocentric):
Date (UTC) HH   RA             Dec           delta  r     elong  mag " sig PA
---- --------  ------------   ------------  ------ ------ -----  --- --------
2025 01 12 17  11 29 07.519   +75 09 21.20  .30695 1.1628 118.8 22.1  37d  15
2025 01 12 18  11 29 23.278   +75 09 35.04  .30713 1.1629 118.8 22.1  37d  15
2025 01 12 19  11 29 38.999   +75 09 48.73  .30731 1.1630 118.7 22.1  37d  15
2025 01 12 20  11 29 54.681   +75 10 02.29  .30749 1.1630 118.7 22.1  37d  15
2025 01 12 21  11 30 10.323   +75 10 15.72  .30767 1.1631 118.7 22.1  37d  15
2025 01 12 22  11 30 25.926   +75 10 29.01  .30785 1.1632 118.7 22.1  38d  15
2025 01 12 23  11 30 41.490   +75 10 42.16  .30803 1.1632 118.7 22.1  38d  15
2025 01 13 00  11 30 57.015   +75 10 55.18  .30821 1.1633 118.7 22.1  38d  15
2025 01 13 01  11 31 12.500   +75 11 08.07  .30839 1.1634 118.7 22.1  38d  15
2025 01 13 02  11 31 27.947   +75 11 20.83  .30857 1.1635 118.7 22.1  38d  15
2025 01 13 03  11 31 43.353   +75 11 33.45  .30875 1.1635 118.6 22.1  38d  15
2025 01 13 04  11 31 58.720   +75 11 45.95  .30893 1.1636 118.6 22.1  38d  15
2025 01 13 05  11 32 14.048   +75 11 58.31  .30911 1.1637 118.6 22.1  38d  15
2025 01 13 06  11 32 29.336   +75 12 10.54  .30929 1.1637 118.6 22.1  38d  15
2025 01 13 07  11 32 44.585   +75 12 22.64  .30947 1.1638 118.6 22.1  38d  15
2025 01 13 08  11 32 59.794   +75 12 34.62  .30965 1.1639 118.6 22.1  38d  15
2025 01 13 09  11 33 14.963   +75 12 46.46  .30984 1.1640 118.6 22.1  38d  15
2025 01 13 10  11 33 30.093   +75 12 58.18  .31002 1.1640 118.6 22.1  38d  15
2025 01 13 11  11 33 45.183   +75 13 09.77  .31020 1.1641 118.5 22.1  38d  15
2025 01 13 12  11 34 00.233   +75 13 21.23  .31038 1.1642 118.5 22.1  38d  15
2025 01 13 13  11 34 15.244   +75 13 32.56  .31056 1.1642 118.5 22.1  38d  15
2025 01 13 14  11 34 30.214   +75 13 43.77  .31074 1.1643 118.5 22.1  39d  15
2025 01 13 15  11 34 45.145   +75 13 54.86  .31092 1.1644 118.5 22.1  39d  15
2025 01 13 16  11 35 00.035   +75 14 05.82  .31110 1.1645 118.5 22.1  39d  15
2025 01 13 17  11 35 14.886   +75 14 16.65  .31128 1.1645 118.5 22.1  39d  15
2025 01 13 18  11 35 29.697   +75 14 27.37  .31146 1.1646 118.5 22.1  39d  15
2025 01 13 19  11 35 44.468   +75 14 37.95  .31164 1.1647 118.4 22.1  39d  15
2025 01 13 20  11 35 59.198   +75 14 48.42  .31182 1.1648 118.4 22.1  39d  15
2025 01 13 21  11 36 13.889   +75 14 58.76  .31200 1.1648 118.4 22.1  39d  15
2025 01 13 22  11 36 28.540   +75 15 08.99  .31218 1.1649 118.4 22.1  39d  15
2025 01 13 23  11 36 43.150   +75 15 19.09  .31236 1.1650 118.4 22.1  39d  14
2025 01 14 00  11 36 57.720   +75 15 29.07  .31254 1.1651 118.4 22.1  39d  14
2025 01 14 01  11 37 12.250   +75 15 38.93  .31272 1.1651 118.4 22.1  39d  14
2025 01 14 02  11 37 26.740   +75 15 48.67  .31290 1.1652 118.4 22.1  39d  14
2025 01 14 03  11 37 41.189   +75 15 58.29  .31308 1.1653 118.4 22.1  39d  14
2025 01 14 04  11 37 55.599   +75 16 07.79  .31326 1.1654 118.3 22.1  39d  14
2025 01 14 05  11 38 09.967   +75 16 17.18  .31344 1.1654 118.3 22.1  39d  14
2025 01 14 06  11 38 24.296   +75 16 26.44  .31362 1.1655 118.3 22.1  39d  14
2025 01 14 07  11 38 38.584   +75 16 35.59  .31381 1.1656 118.3 22.1  39d  14
2025 01 14 08  11 38 52.832   +75 16 44.63  .31399 1.1657 118.3 22.1  39d  15
2025 01 14 09  11 39 07.039   +75 16 53.55  .31417 1.1657 118.3 22.1  39d  15
2025 01 14 10  11 39 21.206   +75 17 02.35  .31435 1.1658 118.3 22.1  39d  15
2025 01 14 11  11 39 35.333   +75 17 11.04  .31453 1.1659 118.3 22.1  39d  15
2025 01 14 12  11 39 49.419   +75 17 19.61  .31471 1.1660 118.2 22.1  39d  15
2025 01 14 13  11 40 03.464   +75 17 28.07  .31489 1.1661 118.2 22.1  39d  15
2025 01 14 14  11 40 17.469   +75 17 36.41  .31507 1.1661 118.2 22.2  39d  15
2025 01 14 15  11 40 31.433   +75 17 44.65  .31525 1.1662 118.2 22.2  39d  15
2025 01 14 16  11 40 45.357   +75 17 52.77  .31543 1.1663 118.2 22.2  39d  15